Flag for India Weather past 2 weeks in Varanasi, Uttar Pradesh, India

Now
75 °F

Passing clouds.


Feels Like: 75 °F
Forecast: 66 / 87 °F
Wind: No wind

Location: Varanasi / Babatpur

Current Time: Oct 25, 2014 at 7:12:03 PM

Latest Report: Oct 25, 2014 at 6:00 PM


Visibility: 2 mi

Pressure: 29.89 "Hg

Humidity: 83%

Dew point: 70 °F

Location of VaranasiLocation

Historic Weather in Varanasi — Graph

°F

Varanasi temperature yesterday

Maximum temperature yesterday: 88 °F (at 3:00 PM)
Minimum temperature yesterday: 68 °F (at 4:00 AM)
Average temperature yesterday: 78 °F

Past Weeks' High & Low Weather Summary

 TemperatureHumidityPressure
High95 °F (Oct 11, 2:00 PM)100% (Oct 12, 6:00 AM)30.07 "Hg (Oct 12, 6:00 AM)
Low66 °F (Oct 20, 5:00 AM)46% (Oct 19, 12:00 PM)29.62 "Hg (Oct 14, 5:00 AM)
Average79 °F76%29.89 "Hg
* Reported Oct 10 7:00 PM — Oct 25 6:00 PM, Varanasi, Weather by CustomWeather, © 2014

Note: Actual official high and low records may vary slightly from our data, if they occured in-between our weather recording intervals... More about our weather records

Advertising

Varanasi weather history for previous 24 hours

 ConditionsComfort  
Time TempWeatherWind HumidityBarometerVisibility
6:00 PM
Oct 25
75 °FPassing clouds.No wind83%29.89 "Hg2 mi
5:00 PM77 °FBroken clouds.No wind83%29.89 "Hg2 mi
4:00 PM79 °FBroken clouds.No wind74%29.89 "Hg2 mi
3:00 PM81 °FBroken clouds.3 mph66%29.89 "Hg3 mi
2:00 PM81 °FBroken clouds.2 mph62%29.89 "Hg3 mi
1:00 PM82 °FBroken clouds.3 mph62%29.89 "Hg2 mi
12:00 PM81 °FBroken clouds.3 mph62%29.92 "Hg2 mi
11:00 AM81 °FBroken clouds.2 mph66%29.95 "Hg2 mi
10:00 AM79 °FScattered clouds.No wind74%29.95 "Hg1 mi
9:00 AM75 °FScattered clouds.No wind83%29.98 "Hg1 mi
8:00 AM73 °FFog.No wind83%29.95 "Hg1 mi
7:00 AM72 °FFog.No wind88%29.92 "Hg1 mi
6:00 AM72 °FFog.No wind88%29.89 "Hg1 mi
4:00 AM70 °FFog.No wind88%29.89 "Hg1 mi
12:00 AM82 °FHaze.No wind58%29.89 "Hg2 mi
11:00 PM
Oct 24
75 °FHaze.No wind74%29.89 "Hg2 mi
7:00 PM77 °FHaze.No wind65%29.89 "Hg2 mi
Weather by CustomWeather, © 2014

See weather overviewHow to use our weather pages